User: anonymous   Login
Location: Montr�al
(45.5000°N, 73.5830°W)
Time: 22:36:35
(UTC-04:00)
Language:

Cosmos 2369 - Orbit

View from above orbital plane
View from above orbital plane
View from above satellite
View from above satellite

Ground track
Ground track

The orbit data is extracted from the following two-line orbital elements,

1 26069U 00006A   15213.82856879 -.00000276  00000-0 -12146-3 0  9998
2 26069 070.9959 354.7573 0011700 203.8329 156.2252 14.13308210799285
Epoch (UTC): 01 August 2015 19:53:08
Eccentricity: 0.0011700
inclination: 70.9959°
perigee height: 839 km
apogee height: 856 km
right ascension of ascending node: 354.7573°
argument of perigee: 203.8329°
revolutions per day: 14.13308210
mean anomaly at epoch: 156.2252°
orbit number at epoch: 79928

The dashed part of the orbit path shows where the satellite is in the earth's shadow,  

DLR